Regional Weather Roundup
Issued by NWS

Home | Current Version | Previous Version | Graphics & Text | Print | Product List | Glossary On
Versions: 1 2 3 4 5 6 7 8 9 10 11 12 13 14 15 16 17 18 19 20 21 22 23 24 25 26 27 28 29 30 31 32 33 34 35 36 37 38 39 40 41 42 43 44 45 46 47 48 49 50
000
ASUS45 KBOI 212010
RWRID
WEATHER ROUNDUP FOR IDAHO
NATIONAL WEATHER SERVICE BOISE ID
200 PM MDT SUN SEP 21 2014

NOTE: "FAIR" INDICATES FEW OR NO CLOUDS BELOW 12000 FEET
WITH NO SIGNIFICANT WEATHER AND/OR OBSTRUCTIONS TO VISIBILITY

IDZ012-014-212100-
SOUTHWEST IDAHO


CITY           SKY/WX    TMP DP  RH WIND       PRES   REMARKS
BOISE          CLOUDY    81  41  24 SE13      30.01F
CALDWELL       CLOUDY    81  48  32 S7        30.02F
MOUNTAIN HOME  CLOUDY    74  43  33 E13       30.03F
$$

IDZ016-017-212100-
SOUTHCENTRAL IDAHO


CITY           SKY/WX    TMP DP  RH WIND       PRES   REMARKS
BURLEY         CLOUDY    70  48  45 CALM      30.12F
JEROME         CLOUDY    69  51  52 NE6       30.11F
TWIN FALLS     CLOUDY    65  55  70 E12       30.11S
$$

IDZ019>023-212100-
SOUTHEAST IDAHO


CITY           SKY/WX    TMP DP  RH WIND       PRES   REMARKS
IDAHO FALLS    PTSUNNY   78  44  29 S7        30.15F
POCATELLO      SUNNY     78  42  27 VRB3      30.14F
REXBURG        PTSUNNY   77  43  29 W9        30.15F
$$

IDZ006-010-011-018-031-032-212100-
CENTRAL IDAHO MOUNTAINS


CITY           SKY/WX    TMP DP  RH WIND       PRES   REMARKS
MCCALL         MOSUNNY   78  40  25 S5        30.10F
HAILEY         PTSUNNY   70  48  46 SE7       30.19F
STANLEY          N/A     73  38  27 N5        30.20F
SALMON         PTSUNNY   73  39  29 CALM      30.07F
CHALLIS        MOSUNNY   75  40  28 CALM      30.13F
$$

IDZ002-004-006-007-026-212100-
NORTHERN IDAHO


CITY           SKY/WX    TMP DP  RH WIND       PRES   REMARKS
LEWISTON       SUNNY     80  44  27 CALM      29.93F
LOWELL           N/A     82  48  30 N3        29.92F
COEUR D`ALENE  SUNNY     82  46  28 NE9       29.97F
MULLAN PASS    SUNNY     68  39  34 MISG      30.19F
$$



USA.gov is the U.S. government's official web portal to all federal, state and local government web resources and services.